Location: Caltech
(34.1382°N, 118.1253°W)
Time: 16:55:15
(UTC-07:00)

Iridium 72 - Visible Passes

Search period start: 24 March 2017 00:00
Search period end: 03 April 2017 00:00
Orbit: 776 x 779 km, 86.4° (Epoch: 23 March)

Date Brightness Start Highest point End Pass type
(mag) Time Alt. Az. Time Alt. Az. Time Alt. Az.
24 Mar 8.3 04:59:56 10° SE 05:03:25 18° E 05:06:55 10° NE visible
25 Mar 5.5 06:04:58 10° S 06:10:10 80° W 06:15:25 10° N visible
26 Mar 6.4 05:31:41 10° SSE 05:36:43 52° E 05:41:46 10° NNE visible
27 Mar 7.6 04:59:03 10° SE 05:03:22 27° E 05:07:42 10° NNE visible
28 Mar 8.5 04:27:32 10° ESE 04:30:09 14° E 04:32:46 10° NE visible
28 Mar 5.7 06:05:14 10° SSW 06:10:18 53° W 06:15:24 10° N visible
29 Mar 5.6 05:31:35 10° S 05:36:47 79° E 05:42:00 10° N visible
30 Mar 6.9 04:58:32 10° SSE 05:03:22 40° E 05:08:13 10° NNE visible
31 Mar 8.0 04:26:15 10° SE 04:30:04 21° E 04:33:53 10° NE visible
31 Mar 6.1 06:05:45 10° SSW 06:10:29 35° W 06:15:15 10° NNW visible
01 Apr 8.6 03:56:02 10° E 03:56:53 10° ENE 03:57:45 10° ENE visible
01 Apr 5.5 05:31:42 10° S 05:36:53 69° W 05:42:05 10° N visible
02 Apr 6.0 04:58:17 10° SSE 05:03:24 61° E 05:08:32 10° N visible
